Location: Ford County Road and Bridge Department
(37.7686°N, 99.9762°W)
Time: 17:39:15
(UTC+00:00)

SL-16 R/B - Pass Details

Date: 18 January 2020
Orbit: 841 x 848 km, 71.0° (Epoch: 22 February)

Event Time Altitude Azimuth Distance (km) Brightness Sun altitude
Rises 01:49:33 0° 347° (NNW) 3,415 5.4 -24.0°
Reaches altitude 10° 01:52:20 10° 359° (N) 2,475 4.6 -24.5°
Enters shadow 01:53:36 16° 7° (N) 2,095 4.1 -24.8°
